Wind_Speed
116 117 115 114 113 111 108 104 101 101 100 98 98 97 94 91 87 85 83 81 79 81 84 82 79 76 73 71 70 69 66 62 59 56 55 52 50 47 45 43 42 42 41 40 39 39 38 36 35 34 32 31 29 27 26 25 25 26 26 27 28 28 29 31 32 33 32 32 32 33 32 31 30 31 33 34 34 34 34 33 32 31 30 28 27 27 27
114 117 116 114 113 112 109 105 102 102 101 100 99 98 97 93 88 87 86 81 79 83 86 83 80 78 75 72 71 70 67 63 60 58 56 54 51 49 47 45 44 43 42 41 41 40 39 38 37 36 34 33 31 30 28 27 27 27 27 28 29 29 31 32 33 33 33 32 32 32 33 33 33 33 33 34 35 36 36 35 34 33 32 30 29 28 28
113 116 116 114 113 112 110 107 104 102 101 101 100 99 98 95 91 89 87 82 82 85 86 83 83 82 77 74 73 71 69 66 63 60 58 55 52 50 48 47 45 44 42 42 42 42 41 41 40 38 37 35 33 31 29 29 28 28 29 29 30 31 32 32 32 33 34 34 33 33 33 34 35 35 34 34 35 37 37 37 37 36 35 33 31 30 29
112 115 116 114 113 112 111 110 106 103 101 101 100 100 99 98 94 91 88 85 85 87 85 83 85 83 79 76 73 71 69 66 64 62 59 56 54 51 49 47 45 44 44 44 45 44 43 42 41 39 37 36 34 32 31 31 31 30 31 31 31 32 33 32 33 33 34 35 35 34 34 35 35 36 36 35 36 37 38 39 38 38 37 35 34 32 31
112 116 116 115 114 113 112 110 107 103 100 99 100 101 100 99 97 94 91 88 87 87 86 85 86 84 80 76 72 71 69 66 65 63 60 58 55 53 50 49 48 47 48 47 47 46 44 42 40 39 38 37 36 35 34 34 32 31 31 31 31 32 33 33 34 34 35 36 36 36 36 35 35 36 36 37 38 38 39 39 39 39 38 37 36 34 33
112 116 115 114 114 112 110 108 107 104 100 98 100 101 100 99 99 96 93 90 88 88 88 88 87 85 82 77 74 72 70 68 66 64 62 60 57 55 53 52 52 52 51 50 49 47 45 43 42 41 40 39 37 36 35 33 33 32 32 31 32 32 33 34 35 35 35 36 37 37 37 36 35 36 37 38 38 38 39 39 40 40 40 38 37 36 36
109 114 115 114 112 109 107 107 107 105 102 100 100 100 99 100 100 98 95 92 90 90 91 90 88 86 83 80 77 74 72 70 68 66 64 62 59 58 58 57 56 54 53 52 51 49 47 46 44 42 41 39 38 36 34 34 34 34 33 32 32 33 34 35 36 36 37 37 38 39 39 38 37 37 38 39 39 39 39 39 40 41 40 39 38 37 37
106 112 114 112 109 106 105 107 108 107 106 103 98 97 99 100 101 100 97 93 92 92 92 90 89 87 84 81 78 75 73 72 70 68 66 64 63 63 62 60 58 57 56 56 54 51 49 47 45 43 42 41 38 36 36 36 35 35 34 33 33 34 34 36 37 38 39 39 40 40 41 40 39 38 39 39 39 39 39 39 39 40 39 39 38 38 37
103 109 112 110 107 105 106 107 109 110 107 103 97 95 98 100 100 101 98 94 94 95 93 90 90 90 86 82 80 78 75 72 71 69 68 67 66 65 63 62 61 60 59 57 54 51 49 48 46 44 43 42 39 37 37 37 36 36 35 34 35 36 36 37 38 40 40 41 41 42 42 42 42 41 41 40 39 38 38 38 38 37 37 38 39 39 39
100 105 109 110 107 105 105 108 110 110 107 102 98 95 97 100 101 101 99 96 96 96 95 93 92 91 88 84 81 79 75 73 72 71 70 69 68 65 64 64 63 62 59 56 53 51 51 50 47 44 43 42 38 38 39 39 37 37 36 36 37 37 38 39 40 41 41 42 42 43 43 45 45 44 43 41 39 38 38 38 37 36 36 37 39 40 41
97 102 105 108 107 105 105 108 110 109 106 103 100 98 97 100 102 101 100 99 98 98 97 96 94 91 89 86 81 77 76 75 74 72 71 70 68 66 66 65 63 60 58 56 54 53 52 50 46 45 45 42 39 40 42 40 37 38 38 37 38 39 39 40 41 41 42 42 43 43 45 46 47 46 45 43 41 40 39 38 37 37 37 37 39 41 42
92 97 101 105 106 106 107 109 109 108 106 104 103 100 96 96 99 101 101 101 100 100 99 98 94 90 88 85 80 78 78 78 75 73 72 70 69 68 67 64 62 60 58 56 55 53 52 49 47 47 47 43 41 42 43 41 39 40 40 40 40 40 40 40 41 42 42 43 44 45 46 46 47 47 47 45 44 42 41 40 39 38 38 38 38 39 41
87 93 97 102 105 106 107 108 108 108 107 106 105 100 94 93 97 101 102 103 103 102 101 100 95 90 87 84 82 81 81 79 76 75 73 72 70 69 67 64 63 61 59 58 57 55 53 51 50 49 47 43 43 45 44 42 42 43 42 41 41 40 40 41 42 43 44 45 45 46 46 46 47 48 48 48 47 45 44 42 41 40 39 39 39 39 39
84 89 94 100 104 106 106 107 108 107 107 106 104 98 94 95 99 102 104 105 105 104 103 101 96 90 88 86 85 84 82 79 78 76 75 73 71 68 66 65 63 62 61 59 58 56 54 52 51 48 45 44 46 46 44 44 44 44 43 42 41 41 42 43 44 45 45 45 45 45 45 46 46 48 49 49 49 48 46 44 42 41 41 41 41 40 40
82 86 91 96 101 104 106 106 107 106 105 104 101 98 96 96 99 103 105 106 107 106 105 101 97 92 89 88 87 85 83 81 79 77 76 74 71 68 67 65 63 62 61 60 59 57 56 54 51 48 46 46 47 46 45 45 44 43 43 42 42 43 43 44 44 44 44 44 44 45 45 46 47 47 48 50 50 50 48 46 45 44 43 43 43 42 41
79 82 88 93 98 102 105 106 105 104 103 102 101 100 98 97 99 103 106 108 109 108 105 102 97 93 91 90 89 86 84 82 81 78 76 74 71 69 68 66 65 64 62 61 60 58 56 54 51 49 49 49 48 48 47 46 44 44 44 43 43 43 43 43 43 43 42 42 43 44 45 46 46 47 48 49 51 51 50 49 48 47 46 46 45 45 44
76 79 84 90 95 100 103 104 104 103 102 101 101 100 99 99 99 103 107 109 110 109 106 103 99 95 92 92 90 88 86 84 82 79 76 74 72 71 69 68 67 65 63 62 61 59 57 55 53 52 51 51 51 50 48 46 45 45 44 43 43 42 42 42 42 42 42 41 41 42 43 44 46 47 48 49 50 52 52 52 51 50 49 48 48 47 46
75 77 82 87 93 97 101 103 104 103 102 101 101 101 101 100 100 103 107 110 110 109 107 104 100 96 93 93 92 89 88 86 83 80 78 75 73 72 70 69 68 67 65 63 62 60 58 57 55 54 54 53 52 51 48 47 46 45 44 43 42 41 41 42 43 42 42 42 42 42 42 43 44 46 47 48 50 51 52 53 53 52 52 51 50 49 48
74 77 80 85 90 94 98 101 102 103 102 100 101 102 102 101 101 104 108 109 109 109 107 104 101 96 93 93 93 91 89 88 85 81 78 76 74 72 71 70 69 68 67 65 63 62 60 59 58 57 56 56 54 52 50 49 47 45 44 43 41 41 42 44 44 44 44 43 43 43 43 43 44 44 46 47 49 51 53 54 55 55 54 53 52 50 49
72 76 80 84 88 92 95 98 100 101 101 100 101 102 102 102 102 104 107 109 109 108 106 104 101 96 91 92 94 93 91 89 86 83 80 77 76 74 72 71 70 68 67 66 64 63 61 60 60 60 59 58 56 54 52 50 48 46 45 43 43 43 44 45 45 45 45 44 44 43 44 44 44 45 46 47 49 52 53 54 55 55 55 54 53 52 50
71 75 79 82 85 89 93 95 96 98 99 99 100 101 102 102 102 104 107 109 109 107 106 104 98 90 89 93 95 94 94 91 88 85 82 78 77 75 73 72 71 69 68 66 64 63 62 61 62 62 62 60 58 56 54 51 49 47 46 45 45 45 45 45 45 44 45 44 44 44 43 44 45 46 48 49 51 52 54 54 55 56 56 55 55 53 52
69 73 76 78 81 85 90 92 94 96 97 98 99 100 101 102 102 105 107 108 108 106 104 103 95 81 82 94 97 94 94 94 89 87 84 80 78 76 75 74 72 70 69 67 65 63 62 62 63 64 63 61 59 57 55 52 50 49 48 47 47 46 46 45 45 44 44 44 44 44 44 44 45 46 48 50 52 53 54 55 55 56 56 56 56 55 54
66 69 71 73 77 82 87 90 92 94 95 96 98 99 100 101 102 104 106 106 107 106 102 103 96 76 71 86 97 95 94 94 91 88 86 83 81 78 76 75 73 71 70 68 65 64 63 63 65 65 64 63 61 58 56 54 52 51 50 48 48 48 47 46 45 44 43 44 44 45 45 44 45 46 48 49 51 53 54 54 55 55 55 56 56 56 56
64 67 69 70 74 80 85 88 91 93 93 95 96 97 99 100 101 104 105 105 106 105 101 101 95 74 62 74 88 93 93 93 91 89 87 84 82 80 77 76 74 72 70 69 66 65 64 65 67 67 65 64 62 59 57 55 54 53 51 50 49 49 48 46 45 44 43 44 45 45 45 45 45 45 46 48 50 51 52 52 52 53 54 54 55 56 56
62 64 67 69 73 79 84 87 90 92 92 93 95 96 98 100 101 103 105 104 105 104 101 99 92 73 61 67 78 85 91 92 90 88 87 84 82 81 78 76 75 72 71 70 68 66 65 66 67 67 65 64 62 60 58 57 56 54 53 51 50 50 48 47 45 45 44 44 44 44 44 44 44 44 45 46 48 50 50 50 50 50 52 53 54 55 55
60 62 64 68 72 79 84 87 90 91 91 92 94 95 98 100 101 103 104 104 104 103 100 98 88 69 58 64 70 74 83 90 89 86 86 84 83 81 79 77 75 73 71 70 69 67 66 66 67 68 66 65 63 62 60 59 57 55 54 53 52 50 49 48 47 46 45 45 44 44 44 44 44 44 44 44 45 47 48 47 47 49 50 52 52 53 53
58 59 62 66 72 78 84 87 90 90 90 91 93 95 98 101 103 104 104 104 104 102 98 98 89 67 53 59 66 67 73 82 86 86 85 84 83 82 80 77 76 74 71 70 69 68 67 67 67 68 67 66 65 63 62 60 58 56 55 55 53 52 50 49 48 47 46 45 45 44 44 44 44 44 43 43 44 44 44 44 46 48 49 50 51 51 52
56 57 60 64 70 77 84 88 90 90 89 90 92 95 98 101 103 105 104 103 103 102 98 98 92 72 52 52 62 66 70 77 82 84 85 84 83 82 80 78 76 75 72 71 70 70 68 67 67 68 68 66 65 64 62 61 60 58 56 55 54 53 52 51 49 48 47 46 46 46 45 45 45 44 43 43 43 43 43 44 45 46 46 48 49 50 51
54 56 59 63 69 77 84 89 90 90 89 90 92 94 97 99 101 102 103 102 101 101 99 98 95 81 61 51 55 62 69 77 81 82 84 85 83 82 80 78 76 74 73 72 71 71 70 69 68 68 67 66 65 64 62 61 60 59 57 56 55 54 53 53 51 49 48 47 47 47 46 46 45 44 44 44 43 43 44 44 44 45 45 47 48 49 50
51 55 59 64 69 77 84 89 90 90 91 93 94 94 96 98 99 100 100 100 100 100 99 98 97 90 74 60 55 57 63 73 81 83 82 83 82 81 79 78 76 74 73 73 72 72 71 71 69 68 67 66 65 65 63 62 61 60 59 58 57 56 55 54 52 51 49 48 48 48 47 47 46 45 44 44 44 45 45 45 45 45 46 46 46 46 46
49 54 59 64 71 79 86 89 89 90 91 93 95 95 96 99 101 100 99 99 99 99 98 98 99 97 85 72 65 62 62 67 75 81 83 82 82 81 79 77 75 74 73 74 74 73 72 72 71 70 69 67 66 65 64 64 63 62 61 60 59 58 57 56 54 52 51 50 49 49 48 48 47 46 46 45 45 46 46 46 47 47 47 46 46 45 44
48 53 58 64 71 80 87 90 89 89 89 90 93 95 97 99 101 101 101 100 99 99 98 97 98 99 93 83 76 72 68 67 70 77 81 83 81 80 79 77 74 73 74 75 74 73 72 72 71 71 70 69 68 67 66 65 65 64 64 63 62 60 59 59 57 55 54 52 51 50 50 49 48 48 47 47 47 47 48 48 48 49 48 48 47 46 45
47 52 57 63 71 80 87 89 89 88 88 89 91 94 97 99 100 101 101 100 99 98 97 96 97 98 95 89 82 78 75 73 72 74 78 81 80 77 75 74 72 72 74 76 75 72 72 71 71 70 70 69 69 69 68 68 67 67 66 65 64 63 62 61 60 59 58 57 55 54 52 51 50 50 50 50 50 50 50 50 51 51 50 49 49 48 48
47 52 57 64 73 81 87 89 89 88 89 90 92 94 97 99 100 99 98 98 98 97 95 95 96 96 94 89 85 81 78 77 77 77 78 80 80 77 73 70 69 69 69 72 74 74 72 71 70 70 70 70 69 69 68 67 67 66 67 67 67 66 65 64 62 61 59 59 58 57 56 55 54 53 53 53 53 53 53 53 53 53 52 51 50 51 51
48 53 58 65 74 83 88 89 88 89 90 91 92 95 97 98 99 98 97 96 97 97 95 94 94 94 91 88 84 81 78 77 78 80 81 81 82 81 76 72 70 69 67 67 69 72 73 72 70 70 70 69 69 68 68 67 66 64 65 66 66 66 66 66 64 63 61 59 59 59 58 58 57 56 56 56 55 55 56 56 56 55 55 53 51 51 51
49 54 60 67 76 84 89 89 89 89 91 92 93 95 97 98 98 98 97 97 97 97 96 95 94 93 91 87 85 83 81 79 79 81 82 82 83 83 80 76 74 73 71 69 68 68 70 70 69 68 67 65 64 65 67 67 65 64 64 65 66 67 68 67 65 64 63 62 61 61 61 61 61 60 59 59 58 58 58 58 58 58 58 58 57 56 56
51 57 62 70 79 86 90 90 90 90 92 93 94 95 97 99 99 98 98 98 99 99 97 96 95 94 92 89 86 84 84 83 82 81 82 84 86 86 83 78 74 73 73 71 71 70 70 69 69 67 64 62 61 63 65 66 66 66 67 68 68 68 68 68 66 65 65 65 65 66 66 65 64 63 63 62 61 61 60 60 60 61 61 62 62 62 62
54 59 65 72 81 89 92 92 92 92 93 94 95 96 98 100 100 100 99 98 99 100 99 97 96 95 94 91 89 87 86 85 85 85 86 87 90 91 88 82 76 75 75 73 72 73 73 72 71 68 64 61 61 63 66 67 67 67 67 67 67 67 68 68 67 67 68 68 68 68 69 68 67 66 65 65 64 64 64 63 63 63 63 64 65 65 65
56 61 67 75 83 91 94 94 93 93 94 95 96 97 100 101 102 101 99 98 99 100 101 99 98 97 96 94 92 91 88 87 86 87 88 89 91 94 93 87 80 78 78 76 74 73 73 73 72 70 66 63 62 64 66 68 68 67 67 65 65 65 66 67 67 69 70 71 71 71 70 70 69 68 67 67 67 67 67 67 67 66 66 66 66 67 67
59 64 70 77 85 92 96 96 95 95 96 96 97 99 101 103 103 102 100 98 98 100 102 102 100 99 98 96 95 94 92 90 88 87 88 90 92 94 95 91 85 81 80 79 77 76 75 74 73 72 71 68 65 66 68 70 70 70 69 68 67 66 68 69 69 70 71 72 71 70 70 69 69 69 69 69 69 69 69 69 69 69 69 69 69 70 70
60 66 72 79 87 93 97 98 97 97 97 98 99 101 103 105 105 104 102 100 99 100 102 104 103 102 100 98 97 96 95 94 91 89 88 90 93 94 95 94 91 86 83 81 80 78 76 76 75 75 74 72 70 69 70 72 72 72 72 70 68 68 69 71 71 71 71 72 72 71 71 71 70 70 70 70 71 72 72 72 72 72 72 72 72 72 72
59 66 73 80 88 94 98 99 99 99 99 99 101 103 105 106 107 106 104 102 101 102 104 105 105 105 103 100 98 97 97 96 95 92 90 91 93 95 95 94 93 91 89 86 84 81 79 78 78 77 77 77 75 73 72 73 74 73 73 71 70 69 71 72 73 72 72 73 74 75 75 76 75 74 74 73 74 75 75 75 75 75 75 75 75 75 75
57 64 72 80 88 95 99 100 100 100 100 101 102 105 107 108 108 108 107 106 104 105 105 106 106 106 106 103 100 98 98 98 98 96 94 92 94 96 96 94 93 92 91 89 88 86 83 81 80 80 80 80 79 78 77 77 77 76 75 74 74 74 74 74 74 73 73 75 77 78 79 79 79 79 78 77 76 76 76 76 76 77 77 78 78 78 78
55 63 71 78 86 94 99 102 102 102 102 102 104 106 109 110 111 111 111 110 109 107 106 106 106 106 106 105 103 100 99 99 99 99 98 95 94 96 97 97 95 93 91 89 88 89 88 86 84 83 83 82 82 81 81 81 81 80 79 78 78 77 76 76 75 75 76 78 79 80 81 81 81 81 81 80 79 78 78 78 78 79 79 80 81 82 82
53 60 69 76 84 92 98 102 103 103 103 103 105 107 110 112 113 113 113 113 113 112 109 107 105 105 105 105 104 103 101 100 100 100 100 99 97 97 98 99 98 96 94 90 88 89 90 90 88 86 85 84 85 85 85 85 84 84 83 82 81 80 79 79 79 80 81 81 82 83 83 83 84 84 84 83 82 82 82 82 82 82 82 82 83 84 84
51 57 66 74 82 90 96 101 103 104 104 104 106 108 111 113 114 115 115 114 114 114 113 110 108 106 105 105 105 105 104 102 102 101 102 101 100 99 100 100 100 99 97 94 92 91 91 92 91 90 88 87 87 87 88 87 86 86 85 84 84 83 83 84 84 84 84 85 86 87 87 86 86 85 85 85 84 84 84 84 83 83 83 84 84 84 85
50 55 62 71 79 87 94 100 103 104 105 106 106 109 111 113 114 115 115 115 114 114 114 113 111 109 108 107 106 106 105 105 104 104 103 103 102 102 102 102 102 102 101 99 96 94 93 94 94 94 92 91 90 90 90 89 88 88 88 87 86 86 86 86 87 87 87 88 89 89 89 88 87 87 86 86 86 85 84 84 83 83 84 85 85 85 85
50 53 58 66 75 84 91 98 102 104 105 106 107 109 111 113 114 114 115 115 114 114 114 114 113 112 111 109 108 107 107 107 106 106 105 105 104 103 103 103 104 104 104 102 100 98 97 96 96 96 95 94 93 92 91 90 89 89 90 90 90 89 90 90 90 90 90 90 90 90 91 91 91 90 90 90 89 88 87 86 85 85 86 87 87 87 86
50 52 56 62 70 79 87 95 100 103 105 106 107 108 111 113 114 114 115 115 115 114 114 114 114 114 113 113 111 110 109 108 108 108 108 107 106 105 105 105 106 106 106 106 104 102 101 100 100 99 99 98 96 95 94 93 92 92 92 92 93 93 94 94 94 93 94 94 93 93 93 93 93 93 93 92 92 91 90 88 87 87 87 88 88 88 89
49 52 55 59 65 73 81 89 96 101 105 106 107 108 110 112 114 114 114 115 115 115 114 114 114 114 114 114 114 113 112 111 111 110 110 109 109 108 108 107 107 107 108 109 107 106 104 104 103 103 102 101 101 100 99 98 97 97 96 96 97 97 97 97 97 97 98 98 97 97 97 97 96 95 93 91 91 91 91 90 89 89 89 90 90 91 92
47 50 54 57 60 66 74 82 90 97 103 107 108 109 110 112 113 113 113 113 115 116 115 114 114 114 114 115 115 115 114 114 113 113 112 111 111 111 110 110 109 109 109 110 110 109 107 107 106 106 106 105 105 105 104 104 104 103 103 102 102 101 101 101 100 100 101 101 101 101 101 101 101 99 97 94 92 92 92 93 92 91 91 91 93 94 95
45 48 51 55 57 61 67 74 82 91 99 105 108 109 110 111 112 113 113 113 114 116 117 116 115 115 115 115 116 116 116 116 116 115 114 113 113 112 112 112 111 111 111 111 111 111 111 110 110 109 109 109 108 108 108 108 108 108 108 108 107 106 105 105 104 104 104 104 104 104 104 104 103 102 100 99 98 97 97 96 95 95 95 95 95 97 98
Wind_Direction
217 219 218 217 216 216 217 216 215 214 214 211 209 209 208 207 207 207 206 203 204 211 216 218 219 218 215 213 214 216 217 216 215 215 216 217 217 218 218 219 220 222 222 223 223 225 226 228 230 232 233 234 235 236 238 239 240 240 241 241 242 241 239 238 237 236 234 233 234 238 239 237 236 238 240 242 243 242 241 241 242 243 243 244 245 248 251
216 218 218 217 216 215 215 215 214 213 212 211 209 208 208 207 206 207 207 202 203 212 217 217 219 218 215 213 213 215 216 215 214 214 215 215 215 215 216 216 218 220 222 223 224 225 226 227 229 230 231 232 233 235 237 239 240 241 242 243 243 242 240 240 239 238 236 234 233 236 239 240 239 238 239 241 243 244 244 244 243 244 244 244 244 246 249
215 217 218 217 216 215 214 214 214 213 211 210 209 207 207 206 205 207 207 202 202 211 216 216 219 219 216 213 213 214 214 214 213 213 214 214 215 215 216 217 218 220 221 222 224 224 225 227 229 230 231 232 233 235 237 240 241 243 244 244 244 244 243 242 241 240 239 236 234 234 238 241 242 241 239 239 241 244 246 246 246 246 246 245 245 245 248
214 216 217 216 215 214 213 213 213 212 211 210 209 207 206 205 205 206 206 203 204 211 215 216 219 221 218 215 214 214 214 214 213 214 213 213 214 215 216 217 218 219 220 221 223 224 226 228 230 232 234 235 235 236 237 239 240 242 243 244 244 245 245 245 243 241 241 239 236 234 235 239 242 243 243 241 241 242 245 246 247 247 247 247 246 246 247
213 215 216 215 215 214 212 212 212 212 211 209 208 207 205 204 204 205 205 203 205 210 214 216 219 221 220 218 215 214 214 213 213 214 213 212 212 213 213 214 215 217 219 221 224 226 228 229 231 233 234 235 236 236 237 240 242 244 246 247 247 247 247 246 244 243 242 240 238 236 235 236 239 243 245 245 244 242 243 245 247 248 248 248 248 246 246
212 214 215 214 214 213 211 211 211 211 210 209 208 207 205 204 203 204 205 203 205 210 214 215 218 219 219 218 216 214 214 213 213 213 213 213 211 211 211 212 214 216 219 221 224 226 227 228 230 232 234 236 238 239 242 244 245 246 248 248 248 248 248 247 246 244 243 241 239 238 236 236 237 240 243 245 246 245 244 244 246 247 248 248 248 248 248
212 214 214 214 213 212 210 210 211 211 210 209 208 206 204 203 203 204 204 203 205 210 214 214 216 219 218 217 216 215 214 213 213 213 213 213 212 211 212 212 214 216 219 221 223 224 226 227 230 232 235 237 239 241 243 244 245 247 247 247 247 247 247 247 246 245 244 242 240 238 237 236 236 238 240 242 244 245 245 245 245 246 248 248 249 249 250
211 213 214 213 212 211 210 210 210 210 210 209 207 205 204 204 203 203 204 203 205 211 214 214 216 218 218 217 216 216 215 214 213 213 213 213 213 213 213 213 215 216 218 220 222 224 226 228 230 232 234 236 238 241 243 244 246 247 247 247 247 246 245 245 244 243 242 242 240 239 237 236 236 237 239 241 243 244 246 246 247 248 248 248 249 250 251
211 212 213 213 211 210 209 209 210 210 209 208 206 204 204 204 203 203 203 203 206 211 214 214 215 217 218 217 216 216 215 214 214 213 213 214 214 215 215 215 216 217 219 221 222 224 226 228 230 232 235 237 239 241 243 245 246 247 247 246 246 245 244 243 243 243 242 241 240 239 238 237 236 237 239 240 242 244 245 247 249 250 249 248 248 249 251
210 210 211 212 211 209 208 208 209 209 208 207 205 204 203 203 202 202 202 203 207 211 214 215 215 216 217 218 217 216 216 215 215 214 214 215 216 216 216 217 218 219 221 222 223 224 226 228 230 232 236 238 239 241 243 245 246 247 246 245 245 245 244 243 243 242 242 242 241 240 239 237 237 237 238 240 242 244 245 246 248 249 249 248 248 248 248
209 209 209 210 210 208 208 208 209 208 207 206 205 204 203 202 202 201 201 203 207 211 213 215 215 214 216 218 218 216 216 216 216 215 215 216 216 217 217 218 219 220 221 223 223 225 227 229 230 232 234 236 237 240 242 244 244 245 245 244 244 243 243 244 244 244 244 243 242 241 240 239 238 238 238 239 241 243 244 245 245 245 246 247 247 247 247
210 209 208 209 208 207 207 208 208 208 206 205 205 204 202 201 201 201 201 203 208 211 213 216 216 214 215 217 218 217 217 217 217 217 217 217 217 217 219 220 220 221 221 223 224 226 228 229 230 232 234 235 236 238 241 242 242 242 242 242 242 242 243 244 245 245 245 244 243 242 241 240 240 239 239 239 240 241 243 243 244 244 244 246 247 248 249
209 209 208 207 207 207 207 207 207 207 205 205 205 203 200 200 201 201 202 204 208 211 213 215 215 213 214 216 218 219 219 218 217 217 218 218 218 218 219 220 221 221 222 223 225 226 228 229 231 233 234 235 236 238 240 241 241 241 242 243 243 242 242 243 243 243 244 244 244 243 242 242 242 241 240 239 239 240 241 242 243 244 244 245 245 246 249
207 207 207 207 207 206 206 207 207 206 205 204 204 201 199 200 201 201 202 204 208 211 213 214 214 213 213 216 217 219 220 219 218 218 218 219 219 219 219 220 221 222 223 225 226 228 229 230 232 234 235 236 237 240 241 241 241 242 243 244 243 242 242 242 243 243 244 245 246 245 244 244 243 242 241 240 239 240 241 242 243 243 244 244 245 246 248
205 205 205 206 206 205 206 206 206 206 204 203 202 201 200 200 200 200 201 204 208 212 213 214 213 212 213 216 217 219 220 220 220 219 219 219 220 220 221 221 222 223 224 225 227 228 229 231 233 234 235 236 238 239 240 240 241 242 243 243 243 243 243 243 244 245 246 247 247 247 246 245 244 244 243 242 241 240 241 242 242 243 243 244 245 247 248
204 204 204 205 204 204 205 206 206 205 204 202 201 201 201 201 201 200 202 204 208 211 213 213 212 211 213 216 218 219 220 221 221 220 220 220 220 220 221 222 223 224 225 226 228 229 230 231 233 234 234 236 237 238 238 239 240 241 242 243 243 244 244 245 246 247 248 248 249 249 248 247 246 245 244 243 242 241 241 241 242 243 244 245 246 247 249
202 203 203 204 203 203 204 205 205 205 203 201 201 201 201 201 201 200 202 204 208 211 212 212 212 211 212 215 218 219 221 222 222 222 221 221 221 221 222 222 224 225 227 228 229 230 231 231 232 233 234 235 236 237 238 238 239 241 242 243 243 244 244 245 246 247 248 248 248 248 248 248 247 246 245 244 243 242 242 242 242 243 244 245 247 248 249
200 201 202 203 203 202 203 203 204 204 202 200 200 200 201 201 201 201 202 205 208 210 212 212 211 211 213 216 218 219 221 222 223 223 223 222 222 222 222 223 225 226 227 229 230 231 231 232 232 233 234 235 236 236 237 237 238 240 242 243 243 243 243 244 244 245 246 245 244 244 245 246 246 246 246 245 244 244 243 243 243 243 244 245 246 248 250
200 200 200 202 202 201 202 202 202 203 202 199 199 200 201 201 201 201 202 205 208 210 211 211 211 210 213 217 219 220 221 223 223 223 224 224 224 224 224 224 225 226 227 229 230 231 232 233 233 233 234 235 235 235 235 236 237 239 241 242 242 241 241 241 242 243 243 244 244 244 244 244 244 245 245 245 245 244 244 243 243 244 244 245 247 248 250
201 200 200 200 200 200 200 201 201 201 201 199 198 199 200 201 201 201 202 205 208 209 210 210 210 210 212 217 220 221 222 223 224 224 224 225 225 225 225 225 226 227 228 229 230 232 233 234 234 234 234 234 234 234 234 235 236 238 239 240 241 241 241 241 242 243 244 245 246 246 246 245 244 243 243 243 243 243 243 244 244 245 245 246 247 248 250
202 202 201 199 198 198 198 199 199 200 200 198 197 198 199 200 200 201 202 205 207 208 209 210 209 209 213 217 220 221 222 223 224 224 225 225 226 226 227 227 227 228 228 230 231 232 233 234 234 234 234 234 233 233 233 234 235 237 239 240 241 242 243 243 243 244 244 245 246 246 247 247 246 244 243 242 242 242 243 243 244 245 246 247 247 249 250
203 203 202 199 197 197 197 197 197 198 198 197 197 197 198 198 199 200 202 204 207 207 208 208 207 207 213 219 220 221 222 223 224 225 225 226 226 227 227 228 228 228 229 230 231 232 233 233 233 233 233 233 232 232 232 233 235 236 238 240 242 243 244 244 244 244 244 245 246 246 246 246 246 246 245 244 243 243 243 243 244 244 245 246 248 249 250
203 204 202 199 196 195 195 195 196 197 197 196 196 196 196 197 198 199 201 204 206 206 207 207 205 204 212 219 221 221 223 223 224 225 225 226 227 227 228 229 229 229 230 230 231 231 232 232 232 233 233 232 231 231 231 232 234 236 238 240 242 244 244 244 244 245 245 245 246 246 246 246 245 245 246 246 246 246 246 246 246 246 247 247 248 249 250
203 203 202 198 195 194 194 194 194 195 196 195 194 194 195 196 197 199 201 204 205 206 206 206 203 203 211 219 221 222 223 223 225 225 226 227 227 228 228 229 230 230 230 230 231 230 230 231 231 232 232 232 231 231 231 232 234 235 237 240 242 244 245 245 246 246 246 245 246 246 247 247 247 246 246 246 247 248 248 248 248 249 249 250 250 250 251
203 203 200 196 194 194 193 192 193 194 195 194 193 193 193 194 196 198 201 203 204 205 205 204 202 202 210 218 221 223 223 223 224 225 226 227 228 228 228 229 230 230 230 230 230 230 229 230 231 231 231 231 231 230 231 232 234 235 237 239 241 243 245 246 247 247 247 246 247 247 247 248 248 247 247 247 248 248 249 249 250 250 250 251 251 251 252
202 201 199 195 192 192 192 191 192 194 194 192 192 192 192 193 195 197 200 202 203 203 204 202 199 201 211 219 221 222 223 223 224 224 225 227 227 227 228 228 228 229 229 229 229 229 228 229 230 230 230 230 230 230 231 232 234 235 237 239 241 242 244 246 247 247 248 247 247 248 248 248 248 248 248 248 249 250 250 251 251 251 251 251 251 252 253
200 200 197 194 192 191 190 190 191 193 193 192 191 191 192 192 194 196 199 201 202 202 202 200 197 197 208 219 220 220 222 223 223 223 224 226 226 227 227 227 227 227 227 227 228 228 227 228 229 230 231 230 230 231 232 233 234 236 238 240 241 242 244 245 247 248 248 248 248 248 248 249 249 250 250 250 250 251 253 253 252 252 252 252 253 253 254
198 197 196 193 191 190 189 189 191 192 192 191 191 191 192 193 194 196 198 200 200 200 200 198 196 194 200 214 221 221 221 222 222 222 222 224 225 226 226 226 226 226 226 226 227 227 227 227 229 230 232 232 232 233 234 235 235 237 238 240 242 243 244 245 246 247 247 247 247 248 248 249 250 250 251 251 252 252 252 252 252 253 253 253 253 253 254
196 195 193 192 191 189 189 189 191 191 191 191 192 192 192 193 194 196 198 199 199 200 199 197 195 194 194 204 216 222 223 222 222 221 221 222 224 225 225 226 226 226 226 227 227 227 227 227 228 230 232 234 235 235 235 236 236 237 238 241 242 243 244 245 245 246 247 247 247 248 249 250 251 251 251 252 252 252 252 252 252 252 252 253 253 253 254
195 194 192 190 189 189 189 190 191 191 190 191 191 191 192 193 194 196 198 199 199 199 199 197 196 195 195 198 207 216 221 223 222 222 221 222 223 224 225 226 226 227 227 228 228 228 228 228 228 230 232 234 236 237 237 237 238 238 239 241 242 243 245 245 246 247 247 247 248 248 249 250 251 251 251 252 252 253 253 253 253 253 253 253 254 254 255
195 194 192 190 188 187 188 190 191 191 191 191 190 190 191 193 194 195 197 198 199 199 198 198 197 197 197 198 203 208 213 218 221 222 221 222 223 224 225 225 226 227 228 229 229 229 229 229 229 230 231 233 236 238 239 241 241 242 242 242 243 244 246 247 247 248 248 248 248 249 249 250 251 251 252 252 252 253 253 254 254 255 254 254 254 254 255
196 194 192 191 189 187 188 190 191 192 192 192 190 190 191 193 194 195 196 197 198 198 198 198 199 199 200 201 203 206 209 213 217 220 220 220 222 223 224 225 226 227 229 230 230 230 231 232 233 233 234 234 236 237 239 241 243 245 245 246 247 247 248 249 250 250 249 249 249 249 249 250 251 251 252 252 252 253 253 254 255 255 255 255 255 255 255
196 194 192 190 189 188 189 190 191 191 192 192 191 191 191 192 194 196 197 197 197 197 197 198 199 201 203 205 205 207 209 212 215 217 218 218 219 221 224 226 227 228 230 232 232 231 232 233 234 236 237 238 239 240 241 243 245 246 248 248 249 250 250 251 252 252 251 250 249 248 248 249 250 251 251 251 252 253 253 254 255 256 257 257 257 256 256
194 194 192 190 189 188 189 190 191 191 191 191 192 192 192 193 194 196 197 197 197 196 196 198 199 201 203 205 206 207 208 211 214 216 216 216 216 217 219 222 222 223 227 232 234 233 233 234 235 236 237 238 239 241 241 241 242 246 249 250 251 251 251 251 252 252 251 250 249 248 247 247 248 249 250 250 251 252 253 255 256 257 258 258 258 257 256
193 192 191 190 188 188 190 191 191 191 191 191 192 193 193 193 194 195 196 197 197 196 196 197 198 200 201 203 204 205 206 208 211 214 215 215 214 213 215 218 218 218 220 225 230 232 233 234 235 236 237 237 238 238 238 237 238 241 245 247 248 250 250 251 251 250 248 248 248 247 247 246 247 248 248 249 250 251 252 254 255 257 257 257 257 256 256
192 191 190 189 188 189 190 191 191 191 191 192 192 193 193 193 194 195 196 196 197 196 196 197 198 199 200 201 202 204 204 205 208 211 212 213 213 213 213 216 218 219 219 220 224 228 232 233 233 233 234 236 236 235 233 232 233 234 235 238 243 247 249 250 250 248 246 246 247 247 248 248 248 248 248 249 249 250 251 253 254 256 256 256 256 256 256
192 190 189 188 188 189 190 191 191 191 192 193 193 193 193 193 194 195 196 196 196 196 196 197 199 200 200 200 202 204 205 205 207 208 210 210 211 211 212 213 216 218 220 221 222 224 227 230 231 230 231 234 236 234 232 229 229 230 232 236 240 243 245 247 248 247 246 246 248 249 249 249 249 249 249 249 250 250 250 252 253 255 256 256 256 256 257
192 191 189 188 188 189 190 192 192 192 193 194 193 193 192 193 194 195 196 196 196 197 197 198 200 201 201 202 203 205 206 206 207 209 209 209 209 209 209 210 212 216 219 222 223 223 223 226 229 230 231 232 234 234 233 231 231 232 235 239 242 245 245 246 245 244 244 246 248 249 250 250 250 250 250 250 251 251 251 252 253 254 255 256 256 257 257
192 191 190 189 189 190 191 192 192 193 194 194 194 193 193 193 194 195 195 196 197 198 199 200 202 203 203 204 205 206 207 207 208 209 210 210 209 209 208 208 210 212 215 218 220 221 222 224 227 230 232 233 233 233 233 232 232 234 237 240 244 246 247 246 245 244 244 246 248 249 250 250 250 251 251 252 252 253 253 253 254 255 256 257 257 257 258
193 192 191 190 190 191 192 193 193 194 194 195 195 194 194 194 195 195 195 196 198 200 201 202 203 205 206 206 207 208 208 209 209 210 212 211 210 210 209 209 210 212 213 214 216 218 220 222 224 228 231 233 234 234 234 233 233 235 238 241 243 244 246 247 246 245 245 246 247 248 249 249 250 250 252 252 253 253 253 254 255 255 256 257 257 258 258
196 193 192 191 191 192 193 194 194 195 195 196 196 195 195 195 196 196 195 196 198 201 202 203 204 206 206 207 208 209 210 210 210 211 212 213 212 211 210 210 211 213 215 215 216 217 219 220 222 224 228 231 233 234 235 235 235 237 239 241 243 244 245 245 244 243 243 244 245 247 248 249 250 252 253 254 255 255 255 255 255 256 256 256 257 258 259
201 197 194 192 192 193 194 195 196 196 196 197 196 196 196 197 197 197 196 196 199 201 203 204 205 206 207 208 208 209 210 211 211 212 212 213 213 212 211 211 213 215 217 217 218 218 220 221 221 222 225 228 231 232 233 233 234 236 238 239 241 243 244 244 244 244 244 244 245 246 248 250 251 253 255 257 258 258 258 258 258 258 258 259 259 259 259
204 202 198 195 194 194 195 196 197 198 198 198 198 197 197 198 198 198 197 197 199 201 203 204 206 207 208 208 209 210 211 212 212 213 213 214 214 213 213 213 213 215 217 218 219 219 220 222 223 223 224 226 229 230 231 232 234 235 237 239 241 242 244 244 245 244 243 244 246 247 248 250 252 254 256 258 260 259 259 259 260 260 261 261 262 262 262
205 204 202 200 197 196 197 198 199 199 199 199 199 199 199 199 200 200 199 199 199 201 202 204 205 207 208 209 209 209 210 211 212 213 214 215 215 215 214 215 215 215 216 217 219 220 221 222 223 223 224 226 228 229 230 232 234 235 236 238 240 242 242 243 243 243 243 244 247 249 250 252 253 255 257 258 259 259 259 260 261 261 262 263 263 264 264
206 205 204 203 201 199 199 199 200 201 201 201 200 200 201 201 201 201 201 201 201 202 203 204 206 207 208 210 210 210 210 211 212 213 214 215 216 216 216 216 216 217 217 217 218 220 221 221 222 223 224 226 228 230 230 231 233 235 237 238 240 240 240 241 242 242 243 245 248 250 252 254 256 256 258 259 260 261 261 262 262 263 264 264 265 265 266
209 206 205 205 204 203 202 202 202 202 203 203 202 202 203 203 203 203 204 204 204 204 204 205 207 208 209 210 212 212 212 212 212 213 215 216 216 217 217 217 217 218 218 217 218 219 221 221 222 222 224 226 228 230 231 232 233 234 236 238 239 240 240 241 242 244 245 247 249 251 254 256 257 258 259 260 262 263 264 264 265 265 265 265 264 264 265
213 208 206 206 206 205 205 205 204 204 205 205 204 204 204 205 206 206 205 206 206 206 206 207 208 209 210 211 212 213 213 213 213 214 215 216 217 218 218 218 218 218 218 218 218 219 221 221 222 223 224 226 227 229 231 233 234 234 235 237 239 240 242 243 244 245 247 248 250 252 254 256 257 258 259 261 263 264 265 265 265 266 266 266 266 265 265
216 212 209 208 207 207 207 207 207 207 207 207 206 206 206 207 208 208 208 208 208 208 208 208 209 210 211 212 213 213 213 214 214 214 215 216 218 219 220 219 219 219 219 219 220 220 221 222 222 223 224 226 228 230 231 233 234 235 235 236 238 239 241 242 244 246 247 249 251 252 254 256 257 258 260 261 263 264 265 266 266 266 266 267 268 268 268
217 215 212 209 209 209 209 209 209 209 209 209 209 209 208 209 209 210 210 210 210 210 210 210 210 211 212 213 214 215 215 215 216 216 216 217 218 219 220 221 221 220 220 221 221 222 223 223 223 224 224 226 227 229 230 231 233 235 236 237 238 239 240 242 243 245 246 248 250 252 254 256 257 259 260 262 263 265 266 266 266 266 266 267 267 268 269
217 217 215 213 210 210 210 210 210 211 211 211 211 211 211 211 212 212 213 212 212 211 212 212 212 212 213 214 215 216 217 217 217 217 217 218 219 220 221 222 222 222 222 222 222 223 224 225 226 226 226 227 228 229 230 231 232 234 235 236 237 239 240 241 243 244 246 247 249 251 253 255 257 258 260 262 263 264 265 264 264 265 266 266 267 267 269
218 217 217 216 214 212 211 211 212 212 212 213 214 214 213 213 214 215 215 214 214 213 213 213 213 214 214 215 216 216 217 217 217 217 217 218 219 220 221 222 223 223 224 224 224 224 224 225 227 228 229 229 230 231 232 233 234 235 236 237 238 239 240 241 243 244 246 248 249 251 253 255 256 258 260 261 261 261 262 263 264 264 265 266 266 267 268
220 218 218 218 218 215 213 212 212 213 213 214 215 215 216 216 216 216 217 217 216 216 216 215 215 215 216 217 217 218 218 218 218 218 218 219 219 221 222 222 223 224 225 226 226 226 226 226 226 228 230 231 232 233 234 235 237 238 238 239 239 240 241 242 243 245 246 248 250 251 252 254 256 257 259 260 260 260 260 261 262 263 264 264 265 266 267
Height
10603 10610 10623 10637 10649 10660 10674 10690 10706 10718 10732 10748 10759 10770 10782 10789 10799 10808 10812 10821 10828 10822 10817 10823 10831 10840 10851 10859 10866 10872 10878 10885 10891 10895 10900 10904 10909 10915 10919 10924 10927 10930 10933 10935 10937 10940 10942 10945 10948 10951 10954 10956 10958 10960 10962 10964 10965 10967 10968 10969 10971 10973 10975 10976 10977 10979 10981 10983 10984 10986 10988 10990 10992 10993 10994 10995 10996 10997 10998 10999 11000 11002 11003 11004 11006 11006 11007
10592 10599 10611 10626 10638 10651 10665 10680 10694 10705 10719 10734 10747 10760 10771 10781 10794 10800 10803 10817 10824 10813 10809 10819 10825 10831 10843 10852 10860 10866 10872 10879 10885 10889 10894 10899 10903 10908 10913 10917 10921 10924 10928 10930 10933 10935 10938 10940 10943 10946 10948 10951 10953 10956 10958 10960 10962 10963 10964 10966 10967 10969 10970 10971 10973 10975 10977 10979 10981 10983 10984 10986 10987 10989 10990 10992 10993 10993 10994 10995 10997 10998 10999 11001 11002 11003 11004
10581 10587 10599 10614 10628 10640 10654 10668 10680 10694 10708 10722 10735 10749 10761 10773 10784 10789 10796 10812 10814 10801 10804 10815 10817 10822 10834 10844 10852 10859 10865 10872 10878 10882 10888 10893 10898 10904 10908 10912 10916 10920 10923 10925 10927 10930 10933 10935 10938 10940 10943 10946 10948 10952 10954 10956 10958 10960 10961 10962 10963 10964 10966 10968 10970 10972 10974 10975 10977 10979 10980 10981 10983 10984 10986 10988 10989 10990 10991 10992 10993 10994 10996 10997 10998 10999 11000
10570 10575 10586 10601 10616 10629 10641 10654 10669 10684 10698 10712 10725 10739 10750 10762 10773 10781 10791 10803 10802 10794 10801 10810 10811 10816 10828 10838 10847 10855 10862 10868 10873 10876 10882 10888 10893 10898 10903 10907 10912 10915 10918 10920 10922 10925 10927 10930 10933 10936 10938 10941 10944 10947 10949 10951 10953 10955 10957 10958 10959 10961 10962 10964 10966 10968 10969 10971 10973 10975 10976 10977 10978 10979 10981 10983 10984 10985 10986 10988 10989 10991 10992 10993 10995 10996 10997
10557 10561 10571 10588 10602 10614 10629 10645 10662 10676 10690 10704 10716 10727 10740 10753 10765 10772 10781 10792 10794 10792 10796 10802 10803 10810 10822 10833 10843 10851 10857 10863 10868 10871 10876 10881 10886 10892 10897 10901 10905 10908 10911 10914 10916 10919 10922 10926 10928 10931 10933 10936 10939 10942 10944 10946 10949 10951 10952 10954 10956 10957 10959 10960 10962 10964 10965 10967 10968 10970 10972 10973 10974 10976 10977 10978 10979 10980 10982 10983 10985 10986 10988 10989 10991 10992 10993
10545 10549 10561 10576 10588 10602 10623 10641 10655 10668 10683 10695 10704 10716 10731 10745 10756 10764 10773 10784 10789 10786 10786 10791 10796 10803 10815 10826 10836 10843 10849 10856 10861 10865 10870 10875 10880 10885 10890 10894 10897 10900 10904 10907 10910 10913 10917 10920 10923 10925 10929 10932 10934 10937 10940 10943 10945 10946 10948 10950 10952 10953 10955 10956 10958 10959 10961 10962 10964 10965 10967 10969 10971 10972 10972 10973 10974 10975 10977 10979 10980 10981 10983 10985 10987 10988 10989
10534 10540 10551 10562 10576 10598 10621 10636 10647 10660 10673 10681 10692 10708 10724 10736 10746 10756 10766 10775 10780 10776 10776 10783 10790 10796 10807 10818 10827 10835 10842 10848 10854 10859 10864 10869 10875 10879 10882 10886 10890 10894 10897 10900 10903 10906 10910 10914 10917 10921 10924 10927 10930 10933 10936 10938 10939 10941 10943 10945 10947 10948 10950 10952 10953 10955 10956 10957 10959 10961 10962 10964 10966 10967 10967 10968 10969 10971 10973 10974 10975 10976 10978 10980 10982 10983 10985
10524 10531 10541 10555 10575 10598 10616 10627 10636 10647 10658 10668 10685 10703 10716 10726 10738 10748 10758 10769 10773 10769 10770 10778 10786 10790 10798 10810 10820 10827 10834 10840 10847 10853 10858 10863 10867 10871 10876 10881 10884 10887 10890 10893 10897 10901 10904 10908 10913 10916 10919 10921 10925 10928 10930 10932 10934 10936 10938 10940 10942 10943 10945 10947 10948 10949 10950 10952 10953 10955 10957 10959 10960 10961 10962 10963 10965 10967 10968 10969 10971 10972 10974 10975 10977 10979 10980
10514 10523 10536 10553 10571 10589 10603 10614 10622 10632 10646 10663 10681 10695 10706 10718 10731 10740 10752 10763 10764 10761 10764 10772 10779 10783 10791 10802 10811 10818 10827 10836 10842 10847 10852 10856 10861 10866 10871 10875 10878 10880 10883 10887 10892 10897 10900 10904 10908 10911 10914 10917 10921 10923 10925 10927 10929 10931 10933 10935 10936 10938 10939 10941 10942 10944 10945 10946 10948 10950 10952 10953 10954 10955 10957 10958 10961 10963 10964 10965 10967 10968 10970 10971 10973 10974 10975
10505 10514 10529 10545 10562 10579 10592 10601 10609 10621 10639 10657 10673 10686 10697 10710 10722 10732 10745 10755 10755 10754 10758 10763 10769 10777 10785 10793 10802 10813 10825 10832 10836 10841 10846 10850 10855 10861 10866 10868 10871 10875 10880 10884 10889 10892 10895 10899 10903 10907 10909 10912 10916 10918 10919 10921 10924 10926 10928 10930 10931 10932 10934 10935 10936 10938 10940 10942 10943 10945 10946 10947 10948 10950 10952 10954 10957 10958 10960 10961 10963 10964 10966 10967 10968 10969 10970
10496 10507 10522 10538 10555 10572 10583 10591 10600 10615 10632 10650 10663 10675 10686 10698 10711 10725 10738 10746 10746 10747 10750 10753 10761 10773 10781 10787 10799 10812 10820 10823 10828 10835 10840 10845 10850 10855 10859 10862 10867 10872 10877 10880 10884 10887 10890 10894 10899 10901 10903 10907 10911 10912 10913 10916 10919 10921 10922 10924 10925 10926 10928 10929 10931 10933 10935 10937 10938 10939 10940 10941 10943 10945 10947 10950 10952 10954 10955 10957 10958 10960 10961 10961 10962 10963 10964
10492 10503 10518 10532 10547 10561 10570 10580 10592 10606 10624 10639 10650 10661 10678 10694 10708 10720 10731 10737 10737 10738 10742 10746 10755 10769 10779 10786 10797 10805 10808 10814 10822 10828 10833 10838 10844 10849 10853 10859 10864 10868 10872 10876 10879 10882 10885 10889 10893 10895 10898 10902 10905 10906 10907 10911 10913 10914 10916 10917 10919 10921 10923 10925 10926 10928 10929 10931 10932 10933 10934 10936 10938 10941 10943 10945 10947 10948 10950 10951 10953 10954 10955 10956 10957 10958 10959
10486 10498 10512 10524 10537 10550 10561 10571 10583 10598 10614 10627 10638 10656 10677 10692 10702 10713 10723 10728 10727 10729 10734 10739 10751 10766 10776 10782 10789 10793 10798 10807 10815 10821 10826 10832 10837 10843 10849 10854 10859 10863 10867 10870 10873 10876 10880 10883 10886 10889 10893 10897 10899 10899 10902 10905 10906 10907 10909 10912 10914 10916 10918 10919 10920 10921 10923 10924 10926 10927 10929 10932 10934 10935 10937 10939 10941 10942 10944 10946 10948 10949 10950 10951 10952 10953 10954
10477 10490 10504 10515 10529 10543 10555 10565 10576 10590 10604 10618 10635 10656 10672 10680 10690 10702 10712 10717 10718 10720 10725 10733 10747 10762 10770 10775 10780 10785 10791 10799 10807 10814 10821 10826 10831 10838 10844 10848 10853 10858 10861 10865 10868 10872 10875 10877 10881 10885 10889 10891 10891 10893 10896 10898 10899 10901 10904 10907 10909 10910 10911 10912 10914 10915 10917 10919 10921 10923 10925 10927 10928 10930 10932 10933 10935 10937 10939 10941 10943 10944 10945 10946 10947 10948 10949
10470 10482 10495 10507 10522 10536 10548 10558 10569 10582 10598 10615 10634 10651 10662 10671 10682 10693 10702 10707 10709 10711 10717 10728 10742 10756 10763 10767 10772 10778 10784 10791 10799 10807 10814 10820 10827 10834 10838 10843 10848 10852 10856 10860 10863 10866 10869 10872 10876 10880 10882 10883 10885 10887 10889 10890 10893 10896 10899 10901 10902 10904 10905 10907 10909 10911 10913 10915 10916 10918 10920 10921 10923 10924 10926 10928 10930 10932 10934 10936 10937 10938 10939 10940 10941 10943 10944
10466 10478 10490 10502 10516 10529 10539 10550 10563 10577 10594 10612 10627 10641 10654 10665 10675 10685 10693 10698 10700 10703 10711 10724 10738 10750 10757 10761 10766 10772 10777 10784 10791 10800 10808 10815 10822 10827 10832 10837 10841 10845 10850 10854 10857 10860 10864 10868 10871 10874 10875 10876 10878 10880 10882 10885 10888 10891 10893 10895 10897 10898 10900 10902 10904 10906 10908 10910 10911 10913 10914 10916 10917 10919 10921 10922 10924 10926 10928 10929 10931 10932 10933 10934 10936 10937 10938
10464 10476 10486 10497 10508 10520 10532 10544 10558 10572 10588 10605 10621 10634 10646 10657 10667 10677 10685 10689 10691 10696 10706 10719 10733 10745 10752 10755 10760 10766 10771 10777 10784 10793 10802 10809 10815 10821 10826 10831 10835 10839 10843 10848 10851 10855 10859 10862 10865 10867 10867 10869 10871 10873 10877 10881 10883 10886 10888 10890 10892 10894 10896 10897 10899 10901 10903 10904 10906 10907 10908 10910 10912 10913 10915 10916 10918 10920 10921 10923 10924 10925 10927 10928 10929 10931 10933
10461 10470 10481 10490 10501 10512 10524 10537 10551 10565 10581 10598 10613 10626 10637 10648 10659 10669 10676 10680 10684 10690 10701 10714 10728 10741 10748 10751 10755 10761 10766 10771 10778 10787 10795 10802 10809 10815 10820 10825 10829 10833 10837 10842 10846 10849 10853 10856 10858 10859 10861 10863 10866 10869 10872 10875 10878 10881 10883 10885 10887 10889 10891 10892 10893 10895 10896 10898 10899 10901 10903 10904 10906 10907 10909 10910 10912 10913 10915 10916 10917 10919 10920 10922 10923 10925 10927
10457 10465 10474 10483 10494 10506 10519 10531 10544 10558 10574 10590 10605 10617 10629 10640 10651 10661 10668 10673 10677 10685 10697 10710 10724 10738 10746 10748 10751 10756 10760 10765 10773 10781 10788 10795 10802 10808 10814 10819 10823 10827 10831 10835 10839 10843 10847 10850 10851 10852 10854 10857 10859 10863 10866 10869 10873 10875 10877 10879 10881 10883 10884 10885 10887 10889 10890 10892 10893 10895 10897 10898 10900 10902 10903 10904 10905 10907 10907 10909 10910 10912 10913 10916 10918 10920 10922
10455 10461 10467 10475 10487 10500 10513 10526 10539 10553 10568 10584 10597 10609 10620 10632 10643 10653 10660 10665 10671 10680 10693 10706 10721 10735 10742 10743 10746 10751 10756 10760 10767 10774 10781 10788 10795 10801 10807 10812 10816 10820 10824 10828 10833 10837 10841 10843 10844 10845 10847 10850 10853 10857 10860 10863 10867 10869 10871 10873 10875 10876 10878 10880 10882 10883 10885 10887 10889 10890 10891 10893 10894 10895 10896 10897 10898 10899 10900 10902 10904 10906 10908 10910 10912 10914 10916
10451 10456 10463 10472 10483 10496 10508 10521 10536 10550 10564 10578 10590 10601 10613 10625 10636 10646 10652 10658 10665 10676 10688 10702 10719 10733 10737 10737 10740 10745 10750 10755 10761 10768 10775 10781 10788 10794 10799 10804 10809 10814 10818 10821 10826 10830 10833 10835 10836 10837 10840 10843 10847 10850 10853 10857 10861 10863 10864 10866 10868 10870 10872 10874 10876 10878 10880 10881 10883 10884 10885 10887 10888 10889 10889 10890 10891 10892 10893 10895 10897 10900 10902 10904 10906 10908 10910
10448 10455 10463 10472 10483 10495 10506 10519 10532 10545 10558 10571 10582 10594 10606 10617 10628 10637 10645 10651 10660 10671 10684 10698 10714 10726 10731 10731 10734 10738 10743 10749 10756 10762 10769 10775 10781 10786 10791 10797 10802 10807 10811 10814 10818 10822 10826 10828 10828 10829 10833 10837 10840 10844 10847 10851 10854 10856 10858 10860 10861 10863 10866 10868 10870 10872 10874 10876 10877 10878 10879 10880 10881 10882 10882 10883 10884 10885 10887 10889 10891 10893 10896 10898 10900 10902 10904
10447 10454 10462 10473 10483 10494 10504 10516 10528 10540 10552 10564 10575 10587 10600 10611 10622 10631 10638 10645 10654 10667 10679 10693 10707 10719 10723 10724 10726 10731 10737 10744 10750 10757 10763 10768 10773 10779 10784 10789 10795 10800 10804 10807 10811 10815 10819 10820 10820 10822 10826 10830 10833 10837 10841 10844 10847 10849 10851 10853 10855 10857 10859 10861 10864 10866 10868 10869 10870 10871 10872 10873 10874 10875 10876 10877 10878 10879 10881 10883 10885 10888 10890 10892 10894 10896 10897
10445 10452 10461 10472 10482 10491 10502 10513 10525 10536 10547 10558 10570 10582 10594 10606 10616 10625 10632 10640 10650 10662 10674 10688 10704 10716 10720 10720 10720 10725 10732 10739 10744 10750 10757 10762 10767 10773 10778 10783 10788 10793 10797 10800 10804 10808 10811 10813 10813 10816 10820 10823 10827 10831 10834 10837 10840 10842 10845 10847 10849 10850 10852 10855 10857 10860 10861 10863 10864 10865 10866 10867 10868 10869 10870 10871 10872 10873 10875 10877 10880 10882 10884 10886 10887 10889 10890
10442 10449 10458 10469 10479 10489 10499 10510 10521 10531 10542 10554 10566 10577 10588 10600 10610 10619 10625 10633 10644 10656 10669 10684 10701 10712 10715 10714 10715 10720 10726 10732 10738 10746 10752 10757 10762 10766 10771 10775 10780 10785 10790 10793 10796 10800 10804 10806 10807 10809 10813 10817 10820 10823 10827 10830 10833 10835 10838 10841 10842 10844 10846 10849 10851 10853 10855 10856 10858 10859 10860 10861 10862 10863 10864 10865 10866 10868 10869 10872 10874 10877 10878 10879 10880 10882 10883
10440 10448 10457 10467 10476 10485 10496 10507 10518 10527 10538 10549 10561 10572 10582 10592 10602 10610 10618 10627 10638 10650 10664 10681 10696 10706 10708 10708 10711 10717 10721 10726 10734 10742 10747 10750 10754 10758 10762 10767 10772 10777 10782 10786 10789 10793 10797 10800 10801 10803 10806 10809 10813 10816 10820 10823 10826 10829 10831 10833 10836 10838 10840 10842 10844 10846 10848 10850 10852 10854 10854 10855 10856 10857 10858 10860 10861 10862 10864 10867 10869 10870 10871 10872 10873 10874 10875
10439 10448 10457 10466 10474 10483 10493 10504 10514 10524 10535 10546 10557 10567 10577 10585 10594 10602 10610 10620 10632 10645 10660 10675 10689 10698 10702 10704 10707 10712 10715 10720 10727 10735 10739 10741 10745 10749 10753 10758 10764 10769 10774 10778 10782 10786 10790 10794 10795 10796 10798 10802 10806 10809 10813 10816 10819 10822 10824 10826 10829 10832 10834 10836 10838 10840 10842 10844 10846 10848 10849 10850 10850 10852 10854 10855 10856 10858 10860 10862 10862 10863 10864 10865 10866 10867 10868
10440 10449 10457 10466 10474 10483 10491 10500 10509 10520 10533 10544 10554 10562 10571 10579 10587 10595 10604 10614 10626 10639 10653 10666 10678 10688 10695 10699 10701 10704 10708 10713 10719 10726 10729 10731 10735 10740 10746 10752 10756 10761 10767 10771 10775 10779 10783 10786 10789 10790 10792 10795 10799 10803 10806 10809 10812 10814 10817 10819 10821 10824 10826 10829 10831 10834 10836 10838 10840 10841 10843 10844 10846 10847 10849 10850 10852 10853 10854 10855 10855 10856 10857 10858 10859 10859 10860
10441 10448 10456 10464 10473 10482 10490 10497 10506 10517 10529 10540 10549 10558 10567 10577 10586 10594 10602 10611 10622 10634 10646 10658 10668 10677 10686 10692 10694 10697 10701 10706 10711 10716 10719 10723 10727 10733 10739 10745 10751 10756 10761 10765 10768 10772 10775 10779 10782 10785 10787 10789 10793 10796 10799 10802 10804 10807 10810 10812 10814 10817 10819 10821 10824 10826 10829 10831 10833 10835 10837 10838 10840 10842 10843 10845 10846 10847 10847 10848 10849 10850 10851 10851 10852 10852 10854
10442 10448 10454 10462 10470 10479 10488 10495 10504 10513 10522 10531 10542 10553 10563 10573 10582 10591 10599 10609 10618 10629 10640 10651 10658 10665 10674 10683 10689 10693 10695 10698 10702 10707 10712 10717 10722 10727 10733 10739 10745 10752 10756 10759 10762 10765 10768 10772 10775 10779 10781 10784 10786 10789 10792 10795 10797 10801 10804 10806 10808 10810 10812 10814 10817 10819 10822 10824 10826 10828 10830 10832 10834 10836 10837 10838 10839 10840 10841 10842 10843 10844 10844 10845 10846 10847 10848
10442 10448 10454 10460 10467 10475 10484 10493 10502 10511 10519 10527 10536 10546 10556 10565 10573 10582 10592 10602 10612 10622 10633 10641 10648 10654 10661 10668 10676 10683 10688 10690 10693 10698 10705 10711 10716 10720 10726 10732 10739 10747 10752 10754 10755 10758 10761 10765 10769 10772 10775 10778 10781 10783 10786 10789 10791 10795 10798 10800 10802 10804 10805 10807 10810 10812 10815 10817 10819 10821 10823 10825 10827 10829 10831 10832 10833 10834 10835 10836 10837 10837 10838 10839 10840 10842 10843
10442 10447 10453 10460 10466 10473 10480 10489 10499 10509 10518 10527 10535 10542 10551 10560 10568 10574 10582 10591 10602 10613 10624 10633 10640 10647 10651 10654 10660 10669 10677 10682 10685 10689 10695 10703 10708 10713 10719 10725 10733 10740 10745 10746 10748 10752 10756 10760 10763 10766 10770 10773 10775 10777 10780 10782 10785 10788 10791 10794 10796 10798 10800 10802 10804 10806 10808 10809 10811 10814 10816 10818 10820 10822 10824 10825 10826 10827 10828 10829 10830 10831 10832 10833 10835 10836 10837
10441 10446 10452 10459 10466 10473 10479 10487 10497 10507 10516 10525 10533 10540 10546 10555 10563 10570 10578 10586 10595 10606 10615 10623 10631 10638 10642 10646 10651 10657 10664 10671 10676 10680 10685 10693 10701 10707 10714 10720 10727 10733 10736 10738 10741 10746 10750 10753 10757 10761 10764 10767 10769 10772 10774 10776 10778 10781 10783 10786 10789 10792 10794 10795 10797 10798 10800 10802 10804 10807 10809 10811 10813 10815 10817 10818 10820 10821 10822 10823 10823 10824 10826 10828 10829 10830 10830
10440 10445 10451 10457 10464 10471 10478 10486 10495 10503 10512 10520 10529 10536 10543 10550 10558 10567 10576 10585 10593 10600 10606 10612 10619 10626 10631 10637 10643 10648 10653 10659 10665 10669 10675 10684 10692 10699 10705 10711 10717 10723 10727 10729 10732 10737 10741 10745 10749 10753 10756 10759 10763 10766 10769 10771 10772 10774 10775 10778 10781 10784 10786 10787 10789 10791 10792 10794 10797 10799 10802 10804 10805 10807 10810 10811 10813 10814 10816 10817 10818 10819 10820 10822 10822 10822 10822
10438 10443 10449 10456 10462 10469 10476 10484 10492 10500 10507 10515 10523 10531 10539 10546 10554 10563 10571 10580 10587 10593 10598 10604 10611 10617 10623 10629 10635 10640 10644 10649 10654 10659 10666 10674 10682 10688 10694 10700 10707 10713 10717 10720 10722 10726 10731 10736 10741 10745 10747 10751 10755 10759 10761 10763 10765 10767 10768 10769 10771 10774 10776 10779 10781 10783 10785 10787 10789 10792 10794 10796 10798 10800 10802 10804 10806 10808 10809 10810 10811 10813 10814 10815 10816 10816 10816
10435 10440 10446 10453 10460 10467 10474 10481 10489 10496 10503 10510 10518 10526 10534 10542 10550 10558 10565 10572 10579 10585 10590 10597 10604 10611 10617 10623 10627 10632 10637 10641 10645 10650 10657 10665 10673 10680 10686 10692 10697 10703 10708 10712 10715 10718 10721 10726 10731 10735 10738 10742 10746 10749 10750 10753 10756 10760 10761 10762 10763 10765 10767 10770 10773 10775 10777 10779 10782 10784 10786 10789 10791 10793 10795 10797 10799 10801 10802 10803 10804 10805 10807 10808 10809 10809 10809
10432 10437 10443 10449 10456 10463 10470 10478 10485 10492 10499 10506 10513 10521 10529 10537 10544 10551 10558 10565 10572 10578 10584 10591 10598 10604 10611 10616 10620 10625 10630 10635 10639 10643 10649 10655 10662 10669 10676 10682 10689 10694 10699 10704 10707 10710 10713 10716 10721 10725 10730 10734 10738 10740 10742 10744 10747 10751 10753 10754 10755 10757 10758 10761 10764 10767 10770 10772 10774 10776 10779 10781 10783 10785 10788 10790 10792 10794 10795 10796 10797 10798 10799 10800 10801 10802 10802
10429 10434 10440 10446 10452 10459 10466 10473 10481 10488 10495 10501 10508 10516 10523 10530 10537 10544 10551 10558 10565 10571 10578 10585 10592 10598 10604 10609 10613 10617 10622 10627 10631 10636 10641 10645 10650 10656 10663 10670 10677 10683 10689 10694 10698 10701 10704 10708 10712 10717 10722 10726 10730 10732 10734 10736 10739 10742 10744 10747 10748 10750 10751 10753 10756 10759 10762 10764 10766 10768 10770 10773 10775 10778 10780 10782 10784 10785 10787 10788 10789 10790 10791 10791 10792 10793 10794
10426 10431 10436 10442 10448 10454 10461 10468 10476 10483 10489 10496 10503 10510 10517 10524 10530 10537 10544 10551 10558 10565 10572 10579 10585 10591 10596 10601 10605 10610 10614 10619 10624 10629 10635 10639 10643 10648 10654 10660 10664 10670 10677 10683 10688 10692 10696 10701 10705 10709 10714 10718 10722 10725 10727 10729 10732 10734 10737 10740 10742 10743 10744 10745 10748 10751 10753 10755 10757 10760 10762 10764 10766 10769 10771 10773 10775 10777 10778 10780 10781 10782 10783 10784 10784 10784 10785
10422 10426 10432 10438 10444 10450 10456 10463 10470 10477 10483 10490 10497 10504 10511 10517 10523 10529 10536 10544 10551 10558 10564 10571 10577 10583 10588 10593 10598 10603 10608 10612 10617 10623 10628 10632 10637 10642 10648 10653 10657 10661 10667 10672 10677 10681 10686 10691 10696 10701 10705 10710 10713 10716 10719 10722 10725 10727 10730 10732 10734 10736 10737 10738 10740 10742 10745 10747 10749 10751 10753 10754 10757 10760 10762 10764 10766 10768 10770 10771 10772 10774 10775 10776 10776 10776 10776
10419 10422 10427 10433 10439 10445 10451 10457 10464 10470 10477 10484 10491 10498 10504 10510 10516 10522 10529 10536 10543 10550 10557 10563 10569 10574 10580 10585 10591 10596 10600 10605 10610 10616 10621 10625 10630 10635 10640 10645 10650 10654 10659 10664 10669 10673 10677 10682 10687 10691 10696 10700 10704 10707 10710 10713 10716 10718 10721 10723 10725 10727 10729 10730 10732 10734 10736 10738 10740 10742 10743 10745 10747 10750 10752 10754 10756 10759 10761 10762 10763 10765 10766 10767 10767 10768 10768
10417 10420 10423 10427 10433 10439 10445 10452 10458 10465 10471 10477 10484 10491 10497 10503 10510 10516 10522 10529 10536 10542 10549 10555 10561 10566 10572 10577 10583 10588 10593 10598 10603 10608 10613 10617 10622 10627 10632 10637 10642 10647 10652 10657 10661 10665 10669 10674 10678 10682 10686 10689 10693 10697 10700 10702 10706 10709 10712 10715 10716 10718 10720 10721 10724 10725 10727 10729 10731 10732 10734 10736 10739 10741 10743 10745 10747 10749 10751 10752 10753 10754 10756 10756 10757 10758 10759
10414 10418 10421 10424 10427 10433 10439 10445 10452 10458 10464 10471 10477 10483 10490 10496 10503 10509 10515 10521 10528 10534 10540 10546 10552 10558 10563 10569 10575 10580 10585 10590 10595 10600 10605 10609 10614 10619 10624 10629 10633 10638 10643 10648 10653 10657 10661 10665 10670 10674 10677 10680 10684 10688 10691 10693 10697 10701 10704 10706 10707 10709 10711 10713 10715 10717 10718 10719 10720 10722 10725 10727 10730 10732 10734 10736 10737 10739 10740 10741 10742 10743 10744 10745 10745 10746 10748
10409 10413 10417 10421 10424 10428 10433 10439 10445 10451 10457 10464 10470 10476 10482 10489 10495 10501 10507 10513 10519 10526 10532 10538 10544 10549 10555 10560 10566 10571 10576 10582 10587 10592 10597 10601 10606 10611 10617 10621 10625 10630 10635 10640 10645 10649 10653 10657 10661 10665 10669 10673 10676 10679 10682 10685 10688 10692 10695 10697 10698 10700 10703 10705 10707 10709 10709 10710 10711 10712 10715 10717 10720 10722 10724 10726 10727 10729 10730 10731 10732 10732 10733 10733 10734 10735 10736
10403 10408 10412 10417 10421 10425 10428 10433 10438 10444 10450 10457 10463 10469 10474 10480 10486 10492 10498 10504 10510 10516 10523 10529 10535 10541 10546 10551 10557 10562 10568 10573 10579 10584 10588 10593 10598 10603 10608 10613 10618 10622 10627 10632 10636 10640 10644 10648 10652 10656 10660 10664 10668 10670 10674 10677 10679 10683 10686 10688 10690 10692 10694 10696 10698 10699 10701 10702 10703 10704 10706 10708 10709 10711 10713 10715 10717 10719 10720 10721 10721 10722 10722 10723 10723 10724 10724
10397 10402 10406 10411 10416 10421 10424 10428 10432 10437 10443 10449 10456 10461 10467 10472 10478 10484 10490 10496 10502 10508 10514 10520 10526 10532 10537 10543 10548 10554 10560 10565 10570 10575 10580 10585 10590 10595 10599 10605 10610 10614 10619 10623 10627 10631 10635 10639 10643 10647 10650 10654 10658 10662 10665 10668 10671 10674 10677 10679 10682 10684 10686 10687 10689 10691 10693 10694 10695 10696 10698 10699 10700 10701 10703 10704 10706 10707 10708 10709 10710 10710 10710 10711 10712 10712 10712
10390 10395 10400 10404 10409 10414 10419 10423 10427 10431 10436 10442 10448 10454 10459 10465 10470 10476 10482 10488 10494 10500 10506 10511 10517 10523 10529 10534 10540 10546 10552 10557 10562 10567 10572 10576 10581 10586 10591 10596 10601 10605 10610 10613 10617 10621 10625 10629 10634 10638 10642 10646 10650 10653 10656 10660 10663 10666 10668 10671 10673 10675 10677 10679 10681 10682 10684 10685 10686 10687 10688 10690 10691 10691 10692 10693 10694 10695 10696 10697 10698 10698 10697 10697 10698 10700 10701
10384 10388 10393 10397 10402 10407 10412 10417 10421 10426 10431 10436 10441 10446 10452 10457 10463 10469 10474 10480 10486 10491 10498 10503 10509 10515 10520 10526 10531 10537 10542 10548 10553 10558 10563 10568 10573 10578 10582 10586 10591 10596 10601 10605 10608 10612 10616 10620 10624 10629 10634 10638 10642 10646 10649 10652 10655 10657 10660 10662 10664 10666 10667 10669 10671 10673 10674 10675 10677 10678 10678 10679 10680 10681 10682 10683 10684 10684 10684 10686 10687 10687 10686 10685 10685 10686 10688
10377 10381 10385 10389 10394 10399 10404 10410 10415 10420 10425 10430 10435 10439 10444 10449 10454 10460 10466 10472 10477 10483 10489 10495 10501 10506 10512 10517 10522 10528 10533 10539 10544 10549 10554 10559 10564 10568 10573 10578 10582 10587 10591 10595 10599 10603 10607 10611 10616 10620 10625 10629 10633 10637 10640 10642 10645 10647 10650 10652 10654 10655 10656 10659 10661 10662 10663 10665 10666 10667 10668 10669 10670 10670 10672 10673 10674 10674 10674 10675 10675 10676 10676 10676 10676 10675 10676
10370 10374 10377 10381 10386 10391 10397 10402 10408 10414 10419 10424 10428 10432 10437 10442 10447 10452 10458 10464 10469 10475 10480 10486 10492 10498 10503 10508 10513 10518 10524 10529 10535 10540 10545 10550 10554 10559 10563 10568 10573 10577 10581 10585 10589 10594 10599 10603 10607 10612 10616 10620 10623 10626 10628 10630 10633 10635 10638 10640 10641 10643 10645 10648 10650 10652 10654 10656 10657 10658 10658 10659 10659 10660 10662 10664 10664 10663 10663 10663 10664 10665 10665 10665 10665 10665 10665
10364 10367 10371 10374 10379 10384 10389 10394 10401 10408 10413 10416 10420 10425 10430 10435 10440 10445 10451 10456 10462 10467 10472 10477 10483 10489 10494 10499 10504 10509 10514 10520 10525 10530 10535 10540 10545 10549 10554 10559 10563 10568 10572 10575 10579 10584 10588 10593 10598 10602 10606 10610 10613 10616 10618 10620 10622 10624 10625 10627 10629 10631 10634 10638 10641 10643 10645 10646 10648 10649 10649 10649 10649 10650 10652 10653 10653 10652 10651 10652 10653 10655 10655 10655 10655 10655 10655
10357 10361 10364 10368 10372 10376 10381 10387 10393 10399 10404 10407 10411 10416 10422 10428 10433 10438 10443 10449 10454 10459 10464 10469 10474 10480 10485 10490 10495 10500 10505 10510 10516 10521 10526 10530 10535 10540 10544 10549 10554 10558 10562 10566 10570 10574 10578 10583 10587 10591 10595 10599 10603 10605 10607 10609 10611 10612 10613 10616 10620 10622 10625 10628 10632 10634 10635 10636 10637 10638 10639 10639 10639 10640 10640 10640 10640 10640 10641 10642 10643 10643 10644 10644 10644 10644 10644